Williamsport, PA

6:56 AM EDT on April 20, 2018 (GMT -0400)
Williamsport Rgnl

Weather History for KIPT - August, 2013

Change the Weather History Date:

Sunday, August 18, 2013

  Actual Average Record
Temperature  
Mean Temperature 67 °F 71 °F  
Max Temperature 75 °F 82 °F 96 °F (1995)
Min Temperature 59 °F 61 °F 43 °F (1941)
Degree Days  
Heating Degree Days 0 0  
Month to date heating degree days 5 0  
Since 1 June heating degree days 14 41  
Since 1 July heating degree days 5 4  
Cooling Degree Days 2 6  
Month to date cooling degree days 81 130  
Year to date cooling degree days 649 563  
Since 1 June cooling degree days 578 520  
Growing Degree Days 17 (Base 50)    
Moisture  
Dew Point 57 °F    
Average Humidity 69    
Maximum Humidity 84    
Minimum Humidity 53    
Precipitation  
Precipitation 0.00 in 0.12 in 3.95 in (1938)
Month to date precipitation 1.37 2.28  
Year to date precipitation 21.23 25.45  
Sea Level Pressure  
Sea Level Pressure 30.21 in    
Wind  
Wind Speed 1 mph (SE)    
Max Wind Speed 7 mph    
Max Gust Speed -    
Visibility 10 miles    
Events      
T = Trace of Precipitation, MM = Missing Value Source: NWS Daily Summary

Daily Weather History Graph

Daily Weather History Graph

Search for Another Location

Airport or City:

Astronomy

Aug. 18, 2013 Rise Set
Actual Time 6:20 AM EDT 8:01 PM EDT
Civil Twilight 5:50 AM EDT 8:31 PM EDT
Nautical Twilight 5:15 AM EDT 9:06 PM EDT
Astronomical Twilight 4:37 AM EDT 9:44 PM EDT
Moon 6:06 PM EDT (8/18) 3:26 AM EDT (8/18)
Length of Visible Light 14h 40m
Length of Day
13h 41m
Waxing Gibbous, 92% of the Moon is Illuminated
Aug 18
Waxing Gibbous
Aug 20
Full
Aug 28
Last Quarter
Sep 5
New
Sep 12
First Quarter

Hourly Weather History & Observations

Time (EDT) Temp. Dew Point Humidity Pressure Visibility Wind Dir Wind Speed Gust Speed Precip Events Conditions
12:54 AM 62.1 °F 55.9 °F 80% 30.24 in 10.0 mi Calm Calm - N/A   Clear
1:54 AM 61.0 °F 55.9 °F 83% 30.25 in 10.0 mi Calm Calm - N/A   Clear
2:54 AM 61.0 °F 55.9 °F 83% 30.24 in 10.0 mi Calm Calm - N/A   Clear
3:54 AM 60.1 °F 55.9 °F 86% 30.23 in 10.0 mi Calm Calm - N/A   Clear
4:54 AM 61.0 °F 55.9 °F 83% 30.23 in 10.0 mi Calm Calm - N/A   Clear
5:54 AM 60.1 °F 55.9 °F 86% 30.25 in 10.0 mi Calm Calm - N/A   Clear
6:54 AM 60.1 °F 55.9 °F 86% 30.26 in 10.0 mi Calm Calm - N/A   Mostly Cloudy
7:54 AM 61.0 °F 55.9 °F 83% 30.26 in 10.0 mi Calm Calm - N/A   Clear
8:54 AM 62.1 °F 57.0 °F 84% 30.26 in 10.0 mi Calm Calm - N/A   Clear
9:54 AM 64.0 °F 57.0 °F 78% 30.26 in 10.0 mi Calm Calm - N/A   Clear
10:54 AM 66.0 °F 57.9 °F 75% 30.26 in 10.0 mi Calm Calm - N/A   Scattered Clouds
11:54 AM 68.0 °F 59.0 °F 73% 30.26 in 9.0 mi Calm Calm - N/A   Clear
12:54 PM 69.1 °F 60.1 °F 73% 30.24 in 10.0 mi Calm Calm - N/A   Clear
1:54 PM 72.0 °F 59.0 °F 64% 30.22 in 10.0 mi Calm Calm - N/A   Clear
2:54 PM 73.9 °F 57.0 °F 55% 30.19 in 10.0 mi Variable 4.6 mph - N/A   Mostly Cloudy
3:54 PM 73.9 °F 55.9 °F 53% 30.18 in 10.0 mi SSE 3.5 mph - N/A   Partly Cloudy
4:54 PM 73.9 °F 55.9 °F 53% 30.17 in 10.0 mi Calm Calm - N/A   Partly Cloudy
5:54 PM 73.0 °F 55.9 °F 55% 30.16 in 10.0 mi South 5.8 mph - N/A   Mostly Cloudy
6:54 PM 71.1 °F 55.9 °F 59% 30.15 in 10.0 mi Variable 3.5 mph - N/A   Clear
7:54 PM 70.0 °F 55.9 °F 61% 30.15 in 10.0 mi Variable 3.5 mph - N/A   Scattered Clouds
8:54 PM 66.9 °F 57.9 °F 73% 30.15 in 10.0 mi North 3.5 mph - N/A   Clear
9:54 PM 64.0 °F 59.0 °F 84% 30.17 in 10.0 mi Calm Calm - N/A   Partly Cloudy
10:54 PM 63.0 °F 57.9 °F 84% 30.16 in 10.0 mi Calm Calm - N/A   Clear
11:54 PM 63.0 °F 57.9 °F 84% 30.16 in 10.0 mi Calm Calm - N/A   Clear